Вернуться в каталог

NOAA 16 DEB

LostSSO
NORAD 41497·DEBRIS·🇺🇸 United States

Запущен Sep 21, 2000 с Vandenberg Space Force Base

Loading…

Ближайшие Пролёты (ближайшие 24 часа)

TLE

УстаревшееSource: Space-Track

Эпоха: Aug 16, 2019, 23:01 UTC

1 41497U 00055LV  19228.95923191  .00000282  00000-0  19624-3 0  9993
2 41497  98.7981 286.9928 0037353  33.1731 327.1769 14.06113561176717

Отслеживайте NOAA 16 DEB в реальном времени с AllMySat

Download on the App Store